Location: Boiro
(42.6475°N, 8.8834°W)
Time: 04:12:17
(UTC+01:00)

Vanguard 1 Rocket - Pass Details

Date: 08 December 2021
Orbit: 651 x 4224 km, 34.3° (Epoch: 21 January)

Event Time Altitude Azimuth Distance (km) Brightness Sun altitude
Rises 09:34:38 0° 279° (W) 6,430 11.2 5.5°
Reaches altitude 10° 09:39:01 10° 270° (W) 5,866 11.1 6.1°
Maximum altitude 09:55:09 32° 216° (SW) 5,378 11.5 8.4°
Drops below altitude 10° 10:15:50 10° 164° (SSE) 7,374 13.3 11.1°
Sets 10:22:33 0° 155° (SSE) 8,221 13.8 12.0°
